Data for 12/21/2016

Time Sea-Level Adjusted Pressure Absolute Pressure Temperature Relative Humidity Dew Point   
(mb) (inHg) (mb) (inHg) (C) (F) (%) (C) (F)
00:05 1021 30.15 850 25.1 -1.6 29.1 38 -14.3 6.2
00:10 1021 30.15 850 25.1 -1.9 28.6 37 -14.7 5.5
00:15 1021 30.15 850 25.1 -1.8 28.8 36 -15 4.9
00:20 1021 30.15 850 25.1 -1.6 29.1 36 -14.7 5.6
00:25 1021 30.15 850 25.1 -1.8 28.8 38 -14.3 6.2
00:30 1021 30.15 851 25.13 -1.9 28.5 39 -14.3 6.3
00:35 1021 30.15 851 25.13 -2.1 28.3 39 -14.2 6.4
00:40 1022 30.18 851 25.13 -2.2 28 40 -14.2 6.5
00:45 1022 30.18 851 25.13 -2.3 27.9 40 -14.1 6.6
00:50 1021 30.15 851 25.13 -2.4 27.8 41 -13.8 7.1
00:55 1022 30.18 851 25.13 -2.5 27.5 42 -13.8 7.2
01:00 1022 30.18 851 25.13 -2.5 27.5 43 -13.4 7.9
01:05 1022 30.18 851 25.13 -2.7 27.1 44 -13.5 7.6
01:10 1022 30.18 851 25.13 -3 26.5 44 -13.6 7.6
01:15 1022 30.18 851 25.13 -3.1 26.3 45 -13.5 7.7
01:20 1022 30.18 851 25.13 -3.2 26.3 45 -13.5 7.7
01:25 1022 30.18 851 25.13 -3.3 26 45 -13.6 7.5
01:30 1022 30.18 851 25.13 -3.4 26 44 -13.9 6.9
01:35 1022 30.18 852 25.16 -3.1 26.3 44 -13.9 7
01:40 1022 30.18 852 25.16 -3.1 26.5 44 -13.7 7.3
01:45 1022 30.18 852 25.16 -3 26.5 42 -14.1 6.5
01:50 1022 30.18 852 25.16 -2.9 26.7 42 -14.3 6.3
01:55 1023 30.21 852 25.16 -2.8 26.9 41 -14.2 6.4
02:00 1023 30.21 852 25.16 -2.8 27 42 -14.1 6.7
02:05 1023 30.21 852 25.16 -2.8 27 42 -13.9 7
02:10 1023 30.21 852 25.16 -2.8 27 44 -13.5 7.7
02:15 1023 30.21 852 25.16 -3 26.7 45 -13.2 8.2
02:20 1023 30.21 852 25.16 -3 26.5 46 -13.1 8.3
02:25 1023 30.21 852 25.16 -3 26.5 46 -13.1 8.4
02:30 1023 30.21 852 25.16 -3 26.6 46 -13 8.5
02:35 1023 30.21 852 25.16 -3.1 26.4 47 -12.9 8.7
02:40 1023 30.21 852 25.16 -3.2 26.2 45 -13.6 7.6
02:45 1023 30.21 852 25.16 -3.3 26 41 -14.7 5.5
02:50 1023 30.21 852 25.16 -3.5 25.7 43 -14.4 6
02:55 1023 30.21 853 25.19 -3.8 25.2 43 -14.8 5.4
03:00 1024 30.24 853 25.19 -3.7 25.4 44 -14.4 6.1
03:05 1024 30.24 853 25.19 -3.7 25.3 44 -14.2 6.4
03:10 1024 30.24 853 25.19 -3.8 25.1 45 -14.2 6.5
03:15 1024 30.24 853 25.19 -3.7 25.4 45 -14.1 6.7
03:20 1024 30.24 853 25.19 -3.7 25.3 46 -13.8 7.1
03:25 1024 30.24 854 25.22 -4 24.8 46 -14 6.7
03:30 1024 30.24 854 25.22 -3.9 24.9 46 -14 6.7
03:35 1024 30.24 854 25.22 -3.8 25.2 44 -14.3 6.3
03:40 1024 30.24 854 25.22 -3.7 25.4 42 -14.7 5.6
03:45 1025 30.27 854 25.22 -3.6 25.6 44 -14.2 6.4
03:50 1025 30.27 854 25.22 -3.2 26.2 42 -14.4 6.1
03:55 1025 30.27 854 25.22 -3 26.6 41 -14.6 5.8
04:00 1025 30.27 854 25.22 -2.9 26.8 41 -14.4 6.1
04:05 1025 30.27 854 25.22 -2.8 27 42 -14.1 6.7
04:10 1025 30.27 854 25.22 -2.7 27.2 41 -14.3 6.3
04:15 1025 30.27 854 25.22 -2.6 27.4 40 -14.4 6
04:20 1025 30.27 854 25.22 -2.5 27.6 40 -14.3 6.3
04:25 1025 30.27 854 25.22 -2.5 27.6 40 -14.4 6
04:30 1025 30.27 855 25.25 -2.2 28 39 -14.3 6.3
04:35 1025 30.27 855 25.25 -2.3 27.8 41 -13.8 7.1
04:40 1025 30.27 855 25.25 -2.4 27.7 41 -14 6.8
04:45 1025 30.27 855 25.25 -2.3 27.9 41 -13.9 7
04:50 1025 30.27 855 25.25 -2.3 27.8 41 -13.8 7.1
04:55 1025 30.27 855 25.25 -2.3 27.8 40 -14.1 6.6
05:00 1025 30.27 855 25.25 -2.3 27.8 40 -14.1 6.7
05:05 1025 30.27 855 25.25 -2.3 27.8 41 -14 6.9
05:10 1025 30.27 855 25.25 -2.4 27.7 41 -13.9 7.1
05:15 1025 30.27 855 25.25 -2.6 27.3 44 -13.3 8.1
05:20 1025 30.27 855 25.25 -2.9 26.8 44 -13.5 7.7
05:25 1025 30.27 855 25.25 -2.9 26.7 44 -13.5 7.7
05:30 1025 30.27 855 25.25 -3 26.6 44 -13.6 7.5
05:35 1025 30.27 854 25.22 -3 26.7 42 -14.1 6.6
05:40 1025 30.27 854 25.22 -2.9 26.8 41 -14.3 6.3
05:45 1025 30.27 854 25.22 -2.8 26.9 41 -14.4 6.2
05:50 1025 30.27 854 25.22 -2.9 26.8 42 -14.2 6.4
05:55 1025 30.27 854 25.22 -2.9 26.7 42 -14.2 6.4
06:00 1025 30.27 854 25.22 -3 26.7 41 -14.3 6.2
06:05 1025 30.27 854 25.22 -2.9 26.7 41 -14.4 6.1
06:10 1025 30.27 854 25.22 -2.9 26.7 40 -14.7 5.5
06:15 1025 30.27 855 25.25 -2.9 26.8 41 -14.5 5.8
06:20 1025 30.27 855 25.25 -2.9 26.8 41 -14.5 5.9
06:25 1025 30.27 854 25.22 -3 26.7 42 -14.2 6.4
06:30 1025 30.27 854 25.22 -3.1 26.4 42 -14.2 6.5
06:35 1025 30.27 855 25.25 -3.2 26.3 43 -14.2 6.5
06:40 1026 30.3 855 25.25 -3.2 26.2 42 -14.5 5.9
06:45 1026 30.3 855 25.25 -3.3 26 43 -14.3 6.3
06:50 1026 30.3 855 25.25 -3.5 25.8 43 -14.3 6.3
06:55 1026 30.3 855 25.25 -3.5 25.7 43 -14.4 6
07:00 1026 30.3 855 25.25 -3.5 25.8 43 -14.3 6.2
07:05 1026 30.3 855 25.25 -3.5 25.6 44 -14.1 6.6
07:10 1026 30.3 855 25.25 -3.6 25.6 42 -14.6 5.6
07:15 1026 30.3 855 25.25 -3.4 25.8 43 -14.3 6.2
07:20 1026 30.3 855 25.25 -3.5 25.6 43 -14.5 5.9
07:25 1026 30.3 855 25.25 -3.3 26 41 -14.7 5.5
07:30 1026 30.3 855 25.25 -3.3 26.1 43 -14.2 6.4
07:35 1026 30.3 855 25.25 -3.3 26.1 43 -14.2 6.4
07:40 1026 30.3 855 25.25 -3.4 26 42 -14.4 6
07:45 1026 30.3 856 25.28 -3.5 25.7 43 -14.4 6.2
07:50 1026 30.3 856 25.28 -3.7 25.4 44 -14.2 6.4
07:55 1026 30.3 856 25.28 -3.9 25 44 -14.4 6
08:00 1027 30.33 856 25.28 -4 24.8 44 -14.5 6
08:05 1026 30.3 856 25.28 -4.1 24.6 45 -14.2 6.4
08:10 1026 30.3 856 25.28 -4.2 24.4 45 -14.4 6
08:15 1027 30.33 856 25.28 -4.3 24.2 45 -14.7 5.6
08:20 1027 30.33 856 25.28 -4.3 24.2 44 -14.8 5.4
08:25 1027 30.33 856 25.28 -4.4 24.2 45 -14.7 5.6
08:30 1027 30.33 856 25.28 -4.4 24 45 -14.7 5.6
08:35 1027 30.33 856 25.28 -4.6 23.7 45 -14.7 5.5
08:40 1026 30.3 856 25.28 -4.7 23.5 45 -14.8 5.3
08:45 1027 30.33 856 25.28 -4.9 23.2 46 -14.8 5.4
08:50 1027 30.33 856 25.28 -4.9 23.1 45 -15.1 4.9
08:55 1027 30.33 856 25.28 -4.8 23.4 46 -14.8 5.3
09:00 1027 30.33 856 25.28 -5.2 22.7 47 -14.8 5.4
09:05 1027 30.33 856 25.28 -5.1 22.9 45 -15.3 4.5
09:10 1027 30.33 856 25.28 -4.8 23.4 44 -15.1 4.8
09:15 1027 30.33 856 25.28 -4.7 23.6 44 -15.1 4.8
09:20 1027 30.33 856 25.28 -4.4 24.2 43 -15.1 4.8
09:25 1027 30.33 856 25.28 -4.1 24.6 43 -15 4.9
09:30 1027 30.33 856 25.28 -3.8 25.1 41 -15.2 4.7
09:35 1027 30.33 856 25.28 -3.6 25.5 41 -15.1 4.9
09:40 1027 30.33 856 25.28 -3.4 25.9 40 -15.2 4.6
09:45 1027 30.33 856 25.28 -3.1 26.4 38 -15.4 4.3
09:50 1027 30.33 856 25.28 -2.9 26.7 39 -15.1 4.8
09:55 1027 30.33 857 25.31 -2.9 26.8 38 -15.2 4.6
10:00 1027 30.33 857 25.31 -2.6 27.3 39 -14.9 5.1
10:05 1027 30.33 857 25.31 -2.3 27.9 38 -14.9 5.2
10:10 1028 30.36 857 25.31 -2.1 28.2 38 -14.6 5.6
10:15 1028 30.36 857 25.31 -2.2 28.1 37 -14.9 5.2
10:20 1028 30.36 857 25.31 -2.8 27 40 -14.7 5.6
10:25 1028 30.36 857 25.31 -3.5 25.7 42 -14.8 5.3
10:30 1028 30.36 857 25.31 -3.6 25.5 42 -14.7 5.6
10:35 1028 30.36 857 25.31 -4.2 24.4 44 -14.7 5.5
10:40 1028 30.36 857 25.31 -4.3 24.2 45 -14.7 5.6
10:45 1028 30.36 857 25.31 -4.2 24.4 44 -14.8 5.4
10:50 1028 30.36 857 25.31 -4.5 23.8 46 -14.6 5.8
10:55 1028 30.36 857 25.31 -4.5 24 46 -14.4 6
11:00 1028 30.36 857 25.31 -3.6 25.5 43 -14.3 6.2
11:05 1028 30.36 857 25.31 -3 26.5 42 -14.4 6.2
11:10 1028 30.36 857 25.31 -2.8 27 41 -14.3 6.3
11:15 1028 30.36 857 25.31 -2.7 27.2 40 -14.5 5.8
11:20 1028 30.36 857 25.31 -2.2 28.1 39 -14.4 6.1
11:25 1028 30.36 857 25.31 -2 28.4 40 -13.9 7
11:30 1028 30.36 857 25.31 -1.7 28.9 38 -14.3 6.3
11:35 1028 30.36 857 25.31 -1.3 29.6 37 -14.2 6.4
11:40 1028 30.36 857 25.31 -1.5 29.3 37 -14.3 6.3
11:45 1028 30.36 857 25.31 -1.3 29.7 37 -14.4 6.1
11:50 1028 30.36 857 25.31 -1 30.1 34 -14.9 5.2
11:55 1028 30.36 857 25.31 -1.1 30.1 35 -14.8 5.3
12:00 1028 30.36 857 25.31 -0.8 30.6 34 -14.8 5.4
12:05 1028 30.36 857 25.31 -0.3 31.4 35 -14.2 6.5
12:10 1028 30.36 857 25.31 0.1 32.2 33 -14.4 6.1
12:15 1028 30.36 857 25.31 0.3 32.5 32 -14.6 5.6
12:20 1028 30.36 857 25.31 0.3 32.6 32 -14.5 5.9
12:25 1028 30.36 857 25.31 0.4 32.6 31 -15 5
12:30 1028 30.36 857 25.31 0.5 32.9 31 -14.6 5.7
12:35 1028 30.36 857 25.31 0.7 33.2 32 -14.4 6.2
12:40 1028 30.36 857 25.31 0.6 33.1 31 -14.7 5.5
12:45 1028 30.36 857 25.31 0.5 32.8 32 -14.3 6.3
12:50 1028 30.36 857 25.31 0.8 33.4 32 -14.3 6.2
12:55 1028 30.36 857 25.31 0.8 33.4 33 -13.9 7
13:00 1028 30.36 857 25.31 0.6 33.1 33 -14 6.8
13:05 1028 30.36 857 25.31 1 33.7 32 -14 6.9
13:10 1028 30.36 857 25.31 1.2 34.2 31 -14 6.8
13:15 1028 30.36 857 25.31 0.8 33.4 33 -13.9 6.9
13:20 1028 30.36 857 25.31 0.2 32.4 33 -14.2 6.5
13:25 1028 30.36 857 25.31 -0.6 31 35 -14.3 6.3
13:30 1028 30.36 857 25.31 0.3 32.6 33 -14.2 6.5
13:35 1027 30.33 857 25.31 1.1 34 32 -13.9 6.9
13:40 1027 30.33 857 25.31 0.9 33.7 32 -14 6.8
13:45 1027 30.33 857 25.31 1.3 34.4 31 -14 6.8
13:50 1027 30.33 857 25.31 0.4 32.7 34 -13.7 7.3
13:55 1027 30.33 857 25.31 -0.4 31.3 33 -14.7 5.5
14:00 1027 30.33 857 25.31 0.3 32.5 34 -13.9 6.9
14:05 1027 30.33 857 25.31 0.1 32.1 36 -13.4 7.9
14:10 1027 30.33 857 25.31 0.4 32.7 33 -14.2 6.4
14:15 1027 30.33 857 25.31 0.8 33.4 32 -14.1 6.7
14:20 1027 30.33 857 25.31 -0.1 31.8 35 -13.7 7.3
14:25 1027 30.33 856 25.28 0.3 32.5 32 -14.7 5.5
14:30 1027 30.33 856 25.28 0.4 32.8 35 -13.5 7.7
14:35 1027 30.33 856 25.28 -0.3 31.4 33 -14.7 5.6
14:40 1027 30.33 856 25.28 -0.6 31 35 -14.3 6.2
14:45 1027 30.33 856 25.28 0.1 32.3 32 -14.5 5.8
14:50 1027 30.33 856 25.28 1.2 34.2 31 -14.2 6.4
14:55 1027 30.33 856 25.28 0.3 32.5 32 -14.7 5.5
15:00 1027 30.33 856 25.28 0.1 32.2 34 -14 6.8
15:05 1027 30.33 856 25.28 1 33.9 31 -14.4 6.1
15:10 1026 30.3 856 25.28 1.7 35 30 -14.1 6.7
15:15 1027 30.33 856 25.28 1.8 35.2 30 -14.2 6.4
15:20 1027 30.33 856 25.28 1.8 35.2 31 -13.7 7.3
15:25 1027 30.33 856 25.28 1.8 35.3 31 -13.4 7.8
15:30 1027 30.33 856 25.28 1.6 34.8 31 -13.9 6.9
15:35 1027 30.33 856 25.28 1.7 35 31 -13.6 7.5
15:40 1027 30.33 856 25.28 1.8 35.2 31 -13.6 7.4
15:45 1027 30.33 856 25.28 1.5 34.7 31 -13.8 7.2
15:50 1027 30.33 856 25.28 1.6 35 30 -14.2 6.4
15:55 1027 30.33 856 25.28 0.8 33.5 33 -13.9 7
16:00 1027 30.33 856 25.28 0.9 33.7 32 -14 6.8
16:05 1027 30.33 856 25.28 0.6 33.1 33 -13.9 6.9
16:10 1027 30.33 856 25.28 1 33.9 32 -13.8 7.1
16:15 1027 30.33 856 25.28 1.1 33.9 32 -13.7 7.3
16:20 1027 30.33 856 25.28 1.3 34.4 32 -13.5 7.8
16:25 1027 30.33 856 25.28 1.3 34.3 32 -13.9 7.1
16:30 1027 30.33 856 25.28 1.2 34.1 33 -13.6 7.6
16:35 1027 30.33 856 25.28 1.1 34 32 -14 6.9
16:40 1027 30.33 856 25.28 1.1 33.9 33 -13.7 7.3
16:45 1027 30.33 856 25.28 0.9 33.7 33 -13.5 7.7
16:50 1027 30.33 856 25.28 -0.2 31.6 37 -13.3 8.1
16:55 1027 30.33 856 25.28 -0.9 30.4 38 -13.6 7.6
17:00 1027 30.33 856 25.28 -1.1 30 41 -12.9 8.9
17:05 1027 30.33 856 25.28 -1.2 29.9 39 -13.4 7.8
17:10 1027 30.33 856 25.28 -1.5 29.3 40 -13.6 7.6
17:15 1027 30.33 856 25.28 -1.9 28.7 40 -13.8 7.2
17:20 1027 30.33 856 25.28 -2.2 28 41 -13.7 7.3
17:25 1026 30.3 856 25.28 -2 28.4 40 -13.8 7.2
17:30 1026 30.3 856 25.28 -2 28.4 40 -13.8 7.2
17:35 1026 30.3 856 25.28 -2.6 27.4 42 -13.9 7
17:40 1027 30.33 856 25.28 -2.8 27 45 -13 8.5
17:45 1026 30.3 856 25.28 -2.8 26.9 44 -13.6 7.5
17:50 1026 30.3 855 25.25 -3.3 26 45 -13.7 7.3
17:55 1026 30.3 855 25.25 -3.3 26.1 46 -13.3 8
18:00 1026 30.3 855 25.25 -3.4 25.9 45 -13.6 7.5
18:05 1026 30.3 855 25.25 -3.6 25.5 46 -13.5 7.7
18:10 1026 30.3 855 25.25 -3.8 25.1 47 -13.5 7.7
18:15 1026 30.3 855 25.25 -4 24.7 46 -13.9 7
18:20 1026 30.3 855 25.25 -4.3 24.3 48 -13.8 7.1
18:25 1026 30.3 855 25.25 -4.2 24.5 48 -13.7 7.3
18:30 1026 30.3 855 25.25 -4.4 24.1 48 -13.8 7.1
18:35 1026 30.3 855 25.25 -4.8 23.3 51 -13.6 7.6
18:40 1026 30.3 855 25.25 -5 23 48 -14.3 6.2
18:45 1026 30.3 855 25.25 -4.8 23.3 47 -14.6 5.7
18:50 1026 30.3 855 25.25 -4.5 23.9 45 -14.9 5.3
18:55 1026 30.3 855 25.25 -4.1 24.7 44 -14.5 5.9
19:00 1026 30.3 855 25.25 -4.6 23.7 49 -13.8 7.1
19:05 1026 30.3 855 25.25 -5.5 22.1 51 -14.1 6.6
19:10 1026 30.3 855 25.25 -6 21.2 52 -14.4 6.1
19:15 1026 30.3 855 25.25 -6.2 20.9 53 -14.2 6.5
19:20 1026 30.3 855 25.25 -6.2 20.9 51 -14.8 5.3
19:25 1026 30.3 855 25.25 -6 21.1 51 -14.6 5.8
19:30 1026 30.3 855 25.25 -6 21.2 50 -14.9 5.2
19:35 1026 30.3 855 25.25 -5.7 21.7 50 -14.6 5.7
19:40 1026 30.3 855 25.25 -5.6 21.9 47 -15.2 4.6
19:45 1026 30.3 855 25.25 -5 22.9 47 -14.8 5.4
19:50 1026 30.3 855 25.25 -5.2 22.6 48 -14.7 5.5
19:55 1026 30.3 855 25.25 -5.5 22.1 50 -14.4 6.1
20:00 1026 30.3 855 25.25 -6 21.2 51 -14.5 5.9
20:05 1026 30.3 855 25.25 -6.6 20.2 53 -14.7 5.5
20:10 1026 30.3 855 25.25 -7.2 19 55 -14.9 5.2
20:15 1026 30.3 855 25.25 -7.3 18.9 54 -15 4.9
20:20 1026 30.3 855 25.25 -6.8 19.7 52 -15 5
20:25 1026 30.3 855 25.25 -6.6 20 52 -15 5.1
20:30 1026 30.3 855 25.25 -6.9 19.6 53 -15 5
20:35 1026 30.3 855 25.25 -7 19.4 53 -15 5
20:40 1026 30.3 855 25.25 -7.3 18.9 53 -15.4 4.4
20:45 1026 30.3 855 25.25 -7.4 18.7 53 -15.5 4.1
20:50 1026 30.3 855 25.25 -7.4 18.7 53 -15.5 4.1
20:55 1026 30.3 855 25.25 -7.2 19.1 51 -15.7 3.8
21:00 1026 30.3 855 25.25 -6.7 19.9 49 -15.7 3.8
21:05 1026 30.3 855 25.25 -6.6 20.1 50 -15.4 4.3
21:10 1026 30.3 855 25.25 -6.7 19.9 50 -15.4 4.2
21:15 1026 30.3 855 25.25 -6.7 20 49 -15.6 3.9
21:20 1026 30.3 855 25.25 -6.7 20 50 -15.4 4.3
21:25 1026 30.3 855 25.25 -6.8 19.8 51 -15.4 4.2
21:30 1026 30.3 855 25.25 -6.4 20.5 49 -15.4 4.2
21:35 1026 30.3 855 25.25 -6.1 20.9 49 -15.2 4.6
21:40 1026 30.3 855 25.25 -6.7 20 51 -15.2 4.7
21:45 1026 30.3 855 25.25 -7.5 18.5 54 -15.2 4.6
21:50 1026 30.3 855 25.25 -7.9 17.9 55 -15.4 4.2
21:55 1026 30.3 855 25.25 -7.8 18 54 -15.5 4.1
22:00 1026 30.3 855 25.25 -8.1 17.5 56 -15.5 4.2
22:05 1026 30.3 855 25.25 -8 17.5 54 -15.8 3.5
22:10 1026 30.3 855 25.25 -7.9 17.8 54 -15.7 3.7
22:15 1026 30.3 855 25.25 -8.1 17.3 55 -15.6 3.9
22:20 1026 30.3 855 25.25 -8.4 16.9 56 -15.7 3.8
22:25 1026 30.3 855 25.25 -8.7 16.4 57 -15.8 3.5
22:30 1026 30.3 855 25.25 -8.8 16.2 56 -16 3.2
22:35 1026 30.3 855 25.25 -8.4 17 55 -16 3.3
22:40 1026 30.3 855 25.25 -8.3 17 55 -15.8 3.5
22:45 1026 30.3 855 25.25 -8.6 16.5 56 -15.9 3.3
22:50 1026 30.3 855 25.25 -8.7 16.3 55 -16.2 2.9
22:55 1026 30.3 855 25.25 -8 17.6 52 -16.2 2.9
23:00 1026 30.3 855 25.25 -7.7 18.2 52 -16 3.2
23:05 1026 30.3 855 25.25 -7.8 17.9 52 -16 3.3
23:10 1026 30.3 855 25.25 -7.9 17.8 52 -16.1 3.1
23:15 1026 30.3 855 25.25 -7.8 18 52 -16 3.3
23:20 1026 30.3 855 25.25 -7.5 18.5 51 -16.1 3.1
23:25 1026 30.3 855 25.25 -7.4 18.7 51 -16 3.2
23:30 1026 30.3 855 25.25 -7.3 18.8 51 -15.9 3.4
23:35 1026 30.3 855 25.25 -7.7 18.1 52 -16 3.3
23:40 1026 30.3 855 25.25 -8.2 17.2 55 -15.8 3.6
23:45 1026 30.3 855 25.25 -8.5 16.7 56 -15.7 3.7
23:50 1026 30.3 855 25.25 -8.4 16.8 54 -16.1 3.1
23:55 1026 30.3 855 25.25 -8.1 17.5 54 -15.9 3.4
24:00 1026 30.3 855 25.25 -7.9 17.8 53 -16 3.2